M I D A S
Marine Information and Data Acquisition System
Tripno 1678 of the Zeeleeuw from 2009-04-21 08:05:11 to 2009-04-21 13:59:22
Back to CruiseResearch ActivitiesStationsMapUnderway DataData graphs

EquipmentUnitsComments
TimeDGPSUTC
LatitudeDGPSDM.mWGS84
LongitudeDGPSDM.mWGS84
SpeedMeteo Stationm/sRelative wind speed
DirectionMeteo StationdegRelative wind direction
TemperatureMeteo Stationdeg CelciusAir temperature
PressureMeteo StationPaAtmospheric pressure
HumidityMeteo Station%Relative humidity
Missing or incorrect values are displayed as -999
Metereological data collected by the RV Zeeleeuw from 2009-04-21 07:56:58 to 2009-04-21 14:07:10
                                                                                    Next 1000 lines
Time Latitude Longitude Speed Direction Temperature Pressure Humidity
2009-04-21 07:57:07 51°13.662 2°55.957 3.8 265 7.7 102630 100
2009-04-21 07:57:13 51°13.663 2°55.954 3 285 7.7 102630 100
2009-04-21 07:57:18 51°13.664 2°55.952 4.4 269 7.7 102630 100
2009-04-21 07:57:24 51°13.665 2°55.947 3.2 308 7.7 102630 100
2009-04-21 07:57:29 51°13.666 2°55.944 3.7 260 7.7 102640 100
2009-04-21 07:57:34 51°13.667 2°55.939 3.8 310 7.7 102640 100
2009-04-21 07:57:39 51°13.668 2°55.935 5 27 7.7 102640 100
2009-04-21 07:57:44 51°13.67 2°55.93 4.2 75 7.7 102640 100
2009-04-21 07:57:49 51°13.671 2°55.925 3.3 265 7.7 102640 100
2009-04-21 07:57:54 51°13.672 2°55.919 2.6 284 7.7 102640 100
2009-04-21 07:57:59 51°13.674 2°55.914 3.5 262 7.7 102640 100
2009-04-21 07:58:04 51°13.675 2°55.908 3.4 282 7.7 102640 100
2009-04-21 07:58:09 51°13.677 2°55.902 2.1 264 7.7 102640 100
2009-04-21 07:58:14 51°13.679 2°55.895 3.3 310 7.7 102640 100
2009-04-21 07:58:19 51°13.68 2°55.889 2.8 31 7.7 102630 100
2009-04-21 07:58:24 51°13.681 2°55.882 3.2 72 7.7 102630 100
2009-04-21 07:58:29 51°13.683 2°55.875 3.8 266 7.7 102640 100
2009-04-21 07:58:34 51°13.684 2°55.868 2.8 305 7.7 102640 100
2009-04-21 07:58:39 51°13.684 2°55.861 2.3 26 7.7 102640 100
2009-04-21 07:58:44 51°13.685 2°55.854 3.7 54 7.7 102640 100
2009-04-21 07:58:49 51°13.686 2°55.847 3.5 28 7.7 102630 100
2009-04-21 07:58:54 51°13.687 2°55.84 3.4 80 7.7 102630 100
2009-04-21 07:58:59 51°13.689 2°55.832 3.6 263 7.7 102640 100
2009-04-21 07:59:04 51°13.69 2°55.824 4.6 310 7.7 102640 100
2009-04-21 07:59:09 51°13.692 2°55.817 2.3 259 7.7 102630 100
2009-04-21 07:59:14 51°13.693 2°55.811 2.3 58 7.7 102630 100
2009-04-21 07:59:19 51°13.694 2°55.806 2.4 265 7.7 102640 100
2009-04-21 07:59:24 51°13.695 2°55.803 1.9 310 7.7 102640 100
2009-04-21 07:59:29 51°13.695 2°55.801 1.6 268 7.7 102640 100
2009-04-21 07:59:34 51°13.695 2°55.8 2.3 52 7.7 102640 100
2009-04-21 07:59:39 51°13.695 2°55.799 3.2 270 7.7 102630 100
2009-04-21 07:59:43 51°13.694 2°55.799 4.2 287 7.7 102630 100
2009-04-21 07:59:49 51°13.694 2°55.796 3.3 24 7.7 102640 100
2009-04-21 07:59:54 51°13.696 2°55.792 4.2 281 7.7 102640 100
2009-04-21 07:59:58 51°13.697 2°55.789 3.5 30 7.7 102630 100
2009-04-21 08:00:03 51°13.699 2°55.783 4.9 84 7.7 102630 100
2009-04-21 08:00:09 51°13.703 2°55.776 2.7 23 7.7 102640 100
2009-04-21 08:00:14 51°13.705 2°55.77 3.9 56 7.7 102640 100
2009-04-21 08:00:19 51°13.709 2°55.763 5.6 27 7.7 102640 100
2009-04-21 08:00:24 51°13.712 2°55.757 5.1 81 7.7 102640 100
2009-04-21 08:00:29 51°13.715 2°55.751 5.2 19 7.7 102640 100
2009-04-21 08:00:34 51°13.719 2°55.744 5.9 81 7.7 102640 100
2009-04-21 08:00:39 51°13.723 2°55.738 4.2 19 7.7 102640 100
2009-04-21 08:00:44 51°13.727 2°55.732 4 78 7.7 102640 100
2009-04-21 08:00:49 51°13.732 2°55.726 5.2 26 7.7 102640 100
2009-04-21 08:00:54 51°13.736 2°55.72 4.5 -999 7.7 102640 100
2009-04-21 08:00:59 51°13.741 2°55.714 5 21 7.7 102640 100
2009-04-21 08:01:04 51°13.746 2°55.708 3.8 73 7.7 102640 100
2009-04-21 08:01:09 51°13.751 2°55.703 5.5 19 7.7 102640 100
2009-04-21 08:01:14 51°13.756 2°55.698 5.9 52 7.7 102640 100
2009-04-21 08:01:19 51°13.761 2°55.692 5.2 23 7.6 102640 100
2009-04-21 08:01:24 51°13.767 2°55.687 6.1 56 7.6 102640 100
2009-04-21 08:01:29 51°13.773 2°55.682 7.3 25 7.7 102640 100
2009-04-21 08:01:34 51°13.779 2°55.677 5.8 50 7.7 102640 100
2009-04-21 08:01:39 51°13.786 2°55.672 5.2 27 7.6 102640 100
2009-04-21 08:01:44 51°13.793 2°55.668 6 57 7.6 102640 100
2009-04-21 08:01:49 51°13.8 2°55.663 7.9 24 7.6 102640 100
2009-04-21 08:01:54 51°13.807 2°55.659 6.9 79 7.6 102640 100
2009-04-21 08:01:59 51°13.813 2°55.656 8.9 25 7.6 102640 100
2009-04-21 08:02:04 51°13.82 2°55.652 7.6 79 7.6 102640 100
2009-04-21 08:02:09 51°13.827 2°55.649 6.9 22 7.6 102640 100
2009-04-21 08:02:14 51°13.834 2°55.646 7.7 58 7.6 102640 100
2009-04-21 08:02:19 51°13.841 2°55.643 7.2 25 7.6 102640 100
2009-04-21 08:02:24 51°13.848 2°55.64 7.5 74 7.6 102640 100
2009-04-21 08:02:29 51°13.854 2°55.637 6.9 18 7.5 102640 100
2009-04-21 08:02:34 51°13.86 2°55.635 5.5 55 7.5 102640 100
2009-04-21 08:02:39 51°13.866 2°55.633 6.6 26 7.5 102640 100
2009-04-21 08:02:44 51°13.872 2°55.632 6.7 78 7.5 102640 100
2009-04-21 08:02:49 51°13.878 2°55.632 5.2 23 7.5 102640 100
2009-04-21 08:02:54 51°13.883 2°55.632 5.9 -999 7.5 102640 100
2009-04-21 08:02:59 51°13.887 2°55.632 6.3 23 7.5 102640 100
2009-04-21 08:03:04 51°13.892 2°55.632 5.4 75 7.5 102640 100
2009-04-21 08:03:09 51°13.896 2°55.632 5.8 19 7.5 102640 100
2009-04-21 08:03:14 51°13.9 2°55.633 5.2 49 7.5 102640 100
2009-04-21 08:03:19 51°13.904 2°55.633 4.3 21 7.5 102630 100
2009-04-21 08:03:24 51°13.908 2°55.634 3.8 53 7.5 102630 100
2009-04-21 08:03:29 51°13.911 2°55.635 4.1 27 7.5 102640 100
2009-04-21 08:03:34 51°13.914 2°55.635 4.6 76 7.5 102640 100
2009-04-21 08:03:38 51°13.915 2°55.635 5 23 7.5 102640 100
2009-04-21 08:03:43 51°13.916 2°55.635 5.6 41 7.5 102640 100
2009-04-21 08:03:48 51°13.916 2°55.633 5.3 31 7.5 102640 100
2009-04-21 08:03:53 51°13.915 2°55.631 5 33 7.5 102640 100
2009-04-21 08:03:58 51°13.914 2°55.629 4.8 27 7.6 102640 100
2009-04-21 08:04:02 51°13.913 2°55.626 4.4 27 7.6 102640 100
2009-04-21 08:04:07 51°13.912 2°55.623 5.3 26 7.5 102640 100
2009-04-21 08:04:12 51°13.912 2°55.62 4.6 28 7.5 102640 100
2009-04-21 08:04:17 51°13.911 2°55.617 4.4 24 7.5 102630 100
2009-04-21 08:04:22 51°13.911 2°55.615 5.2 26 7.5 102630 100
2009-04-21 08:04:27 51°13.911 2°55.614 4.8 20 7.5 102630 100
2009-04-21 08:04:32 51°13.911 2°55.614 4.7 21 7.5 102630 100
2009-04-21 08:04:36 51°13.911 2°55.615 4.4 25 7.5 102630 100
2009-04-21 08:04:41 51°13.912 2°55.617 4.6 21 7.5 102630 100
2009-04-21 08:04:46 51°13.912 2°55.62 5.2 24 7.5 102630 100
2009-04-21 08:04:51 51°13.912 2°55.622 5.1 21 7.5 102630 100
2009-04-21 08:04:56 51°13.912 2°55.625 3.3 13 7.5 102630 100
2009-04-21 08:05:02 51°13.912 2°55.628 5.7 16 7.5 102630 100
2009-04-21 08:05:07 51°13.912 2°55.63 5.1 14 7.5 102630 100
2009-04-21 08:05:13 51°13.912 2°55.63 5.8 10 7.5 102630 100
2009-04-21 08:05:19 51°13.913 2°55.629 4.1 4 7.5 102630 100
2009-04-21 08:05:24 51°13.913 2°55.628 5.4 7 7.5 102630 100
2009-04-21 08:05:29 51°13.914 2°55.627 5.5 -999 7.5 102630 100
2009-04-21 08:05:34 51°13.915 2°55.625 5.8 359 7.5 102630 100
2009-04-21 08:05:39 51°13.916 2°55.622 4.1 -999 7.5 102630 100
2009-04-21 08:05:44 51°13.917 2°55.62 4.6 359 7.5 102630 100
2009-04-21 08:05:49 51°13.919 2°55.617 4.7 353 7.6 102630 100
2009-04-21 08:05:54 51°13.921 2°55.615 4.6 352 7.6 102630 100
2009-04-21 08:05:58 51°13.922 2°55.612 5.5 357 7.5 102630 100
2009-04-21 08:06:03 51°13.924 2°55.61 4.5 353 7.5 102630 100
2009-04-21 08:06:08 51°13.927 2°55.606 5.5 349 7.5 102630 100
2009-04-21 08:06:14 51°13.931 2°55.602 5.6 281 7.5 102630 100
2009-04-21 08:06:18 51°13.934 2°55.598 6.8 345 7.6 102630 100
2009-04-21 08:06:23 51°13.94 2°55.593 7.1 286 7.6 102630 100
2009-04-21 08:06:28 51°13.947 2°55.587 8.5 340 7.6 102630 100
2009-04-21 08:06:33 51°13.953 2°55.581 6.6 344 7.6 102630 100
2009-04-21 08:06:38 51°13.961 2°55.573 7 344 7.6 102630 100
2009-04-21 08:06:42 51°13.967 2°55.567 7.4 282 7.6 102630 100
2009-04-21 08:06:47 51°13.976 2°55.558 7 346 7.5 102620 100
2009-04-21 08:06:52 51°13.985 2°55.55 7.9 344 7.5 102620 100
2009-04-21 08:06:57 51°13.993 2°55.541 8 343 7.5 102620 100
2009-04-21 08:07:02 51°14.004 2°55.532 6.6 285 7.5 102620 100
2009-04-21 08:07:06 51°14.012 2°55.525 8.1 344 7.5 102620 100
2009-04-21 08:07:11 51°14.022 2°55.516 8.7 347 7.5 102620 100
2009-04-21 08:07:16 51°14.032 2°55.505 8.1 345 7.5 102620 100
2009-04-21 08:07:21 51°14.042 2°55.496 8.1 287 7.5 102620 100
2009-04-21 08:07:26 51°14.053 2°55.486 8.9 342 7.5 102620 100
2009-04-21 08:07:31 51°14.064 2°55.476 7.5 341 7.5 102620 100
2009-04-21 08:07:35 51°14.072 2°55.468 7.4 344 7.5 102620 100
2009-04-21 08:07:41 51°14.085 2°55.456 8.3 285 7.5 102620 100
2009-04-21 08:07:46 51°14.097 2°55.446 8.1 342 7.5 102620 100
2009-04-21 08:07:50 51°14.105 2°55.437 8.5 283 7.5 102620 100
2009-04-21 08:07:55 51°14.116 2°55.427 8.9 345 7.6 102620 100
2009-04-21 08:08:01 51°14.129 2°55.414 7.9 340 7.6 102620 100
2009-04-21 08:08:06 51°14.14 2°55.403 6.9 345 7.5 102620 100
2009-04-21 08:08:10 51°14.149 2°55.394 6.6 284 7.5 102620 100
2009-04-21 08:08:15 51°14.159 2°55.383 7.5 344 7.5 102620 100
2009-04-21 08:08:21 51°14.172 2°55.369 7.2 345 7.5 102620 100
2009-04-21 08:08:26 51°14.183 2°55.358 6.6 348 7.5 102620 100
2009-04-21 08:08:30 51°14.191 2°55.348 7.5 346 7.5 102620 100
2009-04-21 08:08:35 51°14.202 2°55.336 8.2 346 7.5 102620 100
2009-04-21 08:08:41 51°14.214 2°55.323 6.9 284 7.5 102620 100
2009-04-21 08:08:46 51°14.225 2°55.312 9.6 341 7.6 102620 100
2009-04-21 08:08:50 51°14.234 2°55.303 7.9 286 7.6 102620 100
2009-04-21 08:08:55 51°14.245 2°55.292 8 342 7.6 102620 100
2009-04-21 08:09:00 51°14.256 2°55.28 9.7 281 7.6 102620 100
2009-04-21 08:09:06 51°14.269 2°55.267 8.7 347 7.6 102620 100
2009-04-21 08:09:11 51°14.279 2°55.254 7.9 280 7.6 102620 100
2009-04-21 08:09:15 51°14.286 2°55.243 8.3 344 7.6 102620 100
2009-04-21 08:09:21 51°14.298 2°55.226 7.9 279 7.6 102620 100
2009-04-21 08:09:25 51°14.305 2°55.215 8.3 342 7.7 102620 100
2009-04-21 08:09:30 51°14.315 2°55.202 9.7 346 7.7 102620 100
2009-04-21 08:09:35 51°14.325 2°55.188 10.4 344 7.7 102620 100
2009-04-21 08:09:41 51°14.337 2°55.171 10 282 7.7 102620 100
2009-04-21 08:09:45 51°14.345 2°55.16 10.4 345 7.7 102620 100
2009-04-21 08:09:50 51°14.353 2°55.144 8.6 279 7.7 102620 100
2009-04-21 08:09:55 51°14.363 2°55.13 8.2 346 7.7 102610 100
2009-04-21 08:10:01 51°14.374 2°55.111 10.1 279 7.7 102610 100
2009-04-21 08:10:05 51°14.381 2°55.098 8.2 348 7.7 102610 100
2009-04-21 08:10:10 51°14.39 2°55.082 8.9 282 7.7 102610 100
2009-04-21 08:10:15 51°14.399 2°55.067 10.4 347 7.7 102610 100
2009-04-21 08:10:21 51°14.411 2°55.047 10.2 349 7.7 102610 100
2009-04-21 08:10:26 51°14.42 2°55.031 8.6 349 7.7 102620 100
2009-04-21 08:10:30 51°14.426 2°55.017 9 349 7.7 102620 100
2009-04-21 08:10:35 51°14.436 2°55 8.9 348 7.7 102610 100
2009-04-21 08:10:41 51°14.446 2°54.979 9.6 349 7.7 102610 100
2009-04-21 08:10:46 51°14.454 2°54.961 7.7 349 7.6 102610 100
2009-04-21 08:10:50 51°14.461 2°54.946 9.3 349 7.6 102610 100
2009-04-21 08:10:55 51°14.469 2°54.928 9.6 349 7.6 102610 100
2009-04-21 08:11:00 51°14.477 2°54.909 9.6 350 7.6 102610 100
2009-04-21 08:11:06 51°14.485 2°54.884 8.6 351 7.6 102620 100
2009-04-21 08:11:11 51°14.491 2°54.864 10 351 7.6 102620 100
2009-04-21 08:11:15 51°14.496 2°54.848 9.4 353 7.6 102620 100
2009-04-21 08:11:21 51°14.504 2°54.824 7.6 352 7.6 102620 100
2009-04-21 08:11:26 51°14.511 2°54.804 8.4 352 7.6 102610 100
2009-04-21 08:11:30 51°14.515 2°54.788 7.3 350 7.6 102610 100
2009-04-21 08:11:35 51°14.521 2°54.767 8.6 351 7.6 102620 100
2009-04-21 08:11:41 51°14.527 2°54.741 8.1 353 7.6 102620 100
2009-04-21 08:11:45 51°14.531 2°54.724 8 353 7.6 102620 100
2009-04-21 08:11:50 51°14.536 2°54.702 8.6 352 7.6 102620 100
2009-04-21 08:11:55 51°14.541 2°54.68 8.5 352 7.6 102610 100
2009-04-21 08:12:01 51°14.547 2°54.653 8.3 352 7.6 102610 100
2009-04-21 08:12:06 51°14.551 2°54.631 9 352 7.6 102620 100
2009-04-21 08:12:10 51°14.555 2°54.613 8.9 352 7.6 102620 100
2009-04-21 08:12:15 51°14.56 2°54.591 8.7 354 7.5 102630 100
2009-04-21 08:12:21 51°14.566 2°54.565 8.3 350 7.5 102630 100
2009-04-21 08:12:25 51°14.571 2°54.547 9.5 349 7.6 102620 100
2009-04-21 08:12:30 51°14.576 2°54.526 9.8 355 7.6 102620 100
2009-04-21 08:12:35 51°14.582 2°54.504 10.1 355 7.6 102610 100
2009-04-21 08:12:41 51°14.589 2°54.478 9.8 354 7.6 102610 100
2009-04-21 08:12:46 51°14.593 2°54.455 8.4 353 7.6 102610 100
2009-04-21 08:12:50 51°14.597 2°54.437 8.6 352 7.6 102610 100
2009-04-21 08:12:55 51°14.604 2°54.416 10.6 349 7.6 102610 100
2009-04-21 08:13:01 51°14.61 2°54.39 9.9 351 7.6 102610 100
2009-04-21 08:13:06 51°14.615 2°54.368 10 354 7.6 102610 100
2009-04-21 08:13:10 51°14.62 2°54.351 9.9 355 7.6 102610 100
2009-04-21 08:13:15 51°14.625 2°54.329 8.1 351 7.5 102610 100
2009-04-21 08:13:20 51°14.63 2°54.306 8 350 7.5 102610 100
2009-04-21 08:13:26 51°14.635 2°54.279 9.5 349 7.5 102620 100
2009-04-21 08:13:30 51°14.638 2°54.261 8.3 351 7.5 102620 100
2009-04-21 08:13:35 51°14.642 2°54.237 9.7 351 7.5 102610 100
2009-04-21 08:13:41 51°14.644 2°54.207 8.7 351 7.5 102610 100
2009-04-21 08:13:46 51°14.648 2°54.184 8.7 349 7.5 102630 100
2009-04-21 08:13:50 51°14.65 2°54.165 7.7 350 7.5 102630 100
2009-04-21 08:13:55 51°14.654 2°54.142 8.5 349 7.5 102620 100
2009-04-21 08:14:01 51°14.659 2°54.115 8.7 350 7.5 102620 100
2009-04-21 08:14:05 51°14.663 2°54.097 9.3 351 7.5 102620 100
2009-04-21 08:14:10 51°14.667 2°54.075 7.7 350 7.5 102620 100
2009-04-21 08:14:15 51°14.672 2°54.052 7.7 352 7.4 102630 100
2009-04-21 08:14:21 51°14.674 2°54.022 8.9 351 7.4 102630 100
2009-04-21 08:14:25 51°14.676 2°54.003 7.3 356 7.4 102620 100
2009-04-21 08:14:30 51°14.679 2°53.979 8.8 2 7.4 102620 100
2009-04-21 08:14:35 51°14.681 2°53.955 8.3 357 7.4 102620 100
2009-04-21 08:14:41 51°14.684 2°53.926 8.1 356 7.4 102620 100
2009-04-21 08:14:46 51°14.686 2°53.901 7.2 356 7.4 102630 100
2009-04-21 08:14:50 51°14.688 2°53.882 7.8 357 7.4 102630 100
2009-04-21 08:14:55 51°14.689 2°53.857 7.8 359 7.4 102630 100
2009-04-21 08:15:01 51°14.692 2°53.828 7 1 7.4 102630 100
2009-04-21 08:15:06 51°14.694 2°53.804 6.6 359 7.5 102630 100
2009-04-21 08:15:10 51°14.697 2°53.785 7.5 359 7.5 102630 100
2009-04-21 08:15:15 51°14.699 2°53.761 7.1 358 7.5 102630 100
2009-04-21 08:15:20 51°14.7 2°53.736 6.8 354 7.5 102630 100
2009-04-21 08:15:26 51°14.703 2°53.706 8.7 354 7.4 102630 100
2009-04-21 08:15:30 51°14.705 2°53.687 8.4 354 7.4 102630 100
2009-04-21 08:15:35 51°14.708 2°53.663 7.5 354 7.4 102640 100
2009-04-21 08:15:40 51°14.711 2°53.639 7 353 7.4 102640 100
2009-04-21 08:15:46 51°14.714 2°53.609 7.2 355 7.4 102640 100
2009-04-21 08:15:50 51°14.717 2°53.59 6.6 355 7.4 102640 100
2009-04-21 08:15:55 51°14.719 2°53.566 7.8 355 7.5 102630 100
2009-04-21 08:16:01 51°14.721 2°53.535 7.7 357 7.5 102630 100
2009-04-21 08:16:05 51°14.724 2°53.516 6.9 357 7.4 102630 100
2009-04-21 08:16:10 51°14.726 2°53.491 7.1 353 7.4 102630 100
2009-04-21 08:16:15 51°14.728 2°53.466 6.5 355 7.4 102640 100
2009-04-21 08:16:21 51°14.73 2°53.436 6.8 354 7.4 102640 100
2009-04-21 08:16:25 51°14.732 2°53.416 7.2 355 7.4 102630 100
2009-04-21 08:16:31 51°14.735 2°53.387 7.3 354 7.4 102630 100
2009-04-21 08:16:35 51°14.737 2°53.368 7.5 354 7.4 102630 100
2009-04-21 08:16:41 51°14.739 2°53.338 7.9 354 7.4 102630 100
2009-04-21 08:16:45 51°14.742 2°53.319 7.9 356 7.4 102630 100
2009-04-21 08:16:50 51°14.744 2°53.295 7.6 357 7.4 102630 100
2009-04-21 08:16:55 51°14.747 2°53.27 6.1 354 7.4 102630 100
2009-04-21 08:17:01 51°14.748 2°53.24 6.5 352 7.4 102630 100
2009-04-21 08:17:06 51°14.75 2°53.216 7.5 354 7.5 102630 100
2009-04-21 08:17:10 51°14.752 2°53.196 8.8 355 7.5 102630 100
2009-04-21 08:17:15 51°14.754 2°53.171 7.7 358 7.4 102630 100
2009-04-21 08:17:21 51°14.757 2°53.142 7.2 356 7.4 102630 100
2009-04-21 08:17:26 51°14.759 2°53.117 7.6 357 7.4 102640 100
2009-04-21 08:17:30 51°14.76 2°53.097 7.4 354 7.4 102640 100
2009-04-21 08:17:35 51°14.762 2°53.072 7.4 357 7.4 102630 100
2009-04-21 08:17:40 51°14.764 2°53.048 7.2 357 7.4 102630 100
2009-04-21 08:17:46 51°14.767 2°53.018 8.2 357 7.4 102630 100
2009-04-21 08:17:51 51°14.77 2°52.994 8.1 352 7.4 102630 100
2009-04-21 08:17:55 51°14.771 2°52.974 7.9 357 7.4 102630 100
2009-04-21 08:18:01 51°14.774 2°52.944 9.7 357 7.4 102630 100
2009-04-21 08:18:06 51°14.776 2°52.92 10.5 355 7.5 102630 100
2009-04-21 08:18:10 51°14.779 2°52.9 9.1 355 7.5 102630 100
2009-04-21 08:18:15 51°14.783 2°52.877 9.9 356 7.5 102630 100
2009-04-21 08:18:21 51°14.786 2°52.847 8.7 358 7.5 102630 100
2009-04-21 08:18:25 51°14.789 2°52.828 8.5 356 7.6 102630 100
2009-04-21 08:18:30 51°14.79 2°52.803 9.5 351 7.6 102630 100
2009-04-21 08:18:35 51°14.792 2°52.778 10.8 353 7.6 102630 100
2009-04-21 08:18:41 51°14.793 2°52.748 9.8 355 7.6 102630 100
2009-04-21 08:18:45 51°14.795 2°52.728 8.7 354 7.6 102630 100
2009-04-21 08:18:51 51°14.797 2°52.699 9.1 352 7.6 102630 100
2009-04-21 08:18:55 51°14.798 2°52.679 9.6 356 7.6 102620 100
2009-04-21 08:19:01 51°14.801 2°52.65 9.6 355 7.6 102620 100
2009-04-21 08:19:05 51°14.803 2°52.63 10.3 354 7.6 102620 100
2009-04-21 08:19:10 51°14.805 2°52.605 9.7 354 7.6 102620 100
2009-04-21 08:19:15 51°14.807 2°52.581 10.7 356 7.6 102630 100
2009-04-21 08:19:21 51°14.81 2°52.552 10.9 354 7.6 102630 100
2009-04-21 08:19:26 51°14.813 2°52.528 8.8 352 7.5 102620 100
2009-04-21 08:19:30 51°14.814 2°52.509 8.5 352 7.5 102620 100
2009-04-21 08:19:35 51°14.818 2°52.485 8.7 351 7.5 102620 100
2009-04-21 08:19:41 51°14.82 2°52.454 8.8 350 7.5 102620 100
2009-04-21 08:19:46 51°14.822 2°52.43 10.6 352 7.5 102620 100
2009-04-21 08:19:50 51°14.824 2°52.41 8.7 352 7.5 102620 100
2009-04-21 08:19:55 51°14.827 2°52.386 9.6 353 7.4 102620 100
2009-04-21 08:20:01 51°14.83 2°52.357 8.1 351 7.4 102620 100
2009-04-21 08:20:06 51°14.833 2°52.334 9 352 7.4 102630 100
2009-04-21 08:20:10 51°14.835 2°52.314 10.3 353 7.4 102630 100
2009-04-21 08:20:15 51°14.838 2°52.29 9.5 352 7.5 102620 100
2009-04-21 08:20:21 51°14.84 2°52.261 9.8 353 7.5 102620 100
2009-04-21 08:20:26 51°14.842 2°52.236 8.6 353 7.5 102620 100
2009-04-21 08:20:30 51°14.844 2°52.216 11 353 7.5 102620 100
2009-04-21 08:20:35 51°14.847 2°52.192 9.9 350 7.5 102630 100
2009-04-21 08:20:41 51°14.85 2°52.163 10 279 7.5 102630 100
2009-04-21 08:20:46 51°14.853 2°52.139 9 352 7.4 102630 100
2009-04-21 08:20:50 51°14.854 2°52.119 8.9 354 7.4 102630 100
2009-04-21 08:20:55 51°14.857 2°52.094 9.2 356 7.5 102630 100
2009-04-21 08:21:01 51°14.859 2°52.064 10.1 354 7.5 102630 100
2009-04-21 08:21:05 51°14.861 2°52.044 9.4 352 7.5 102630 100
2009-04-21 08:21:10 51°14.863 2°52.02 8.7 355 7.5 102630 100
2009-04-21 08:21:15 51°14.865 2°51.996 8.6 353 7.5 102620 100
2009-04-21 08:21:21 51°14.867 2°51.966 10.2 352 7.5 102620 100
2009-04-21 08:21:26 51°14.87 2°51.942 10.1 353 7.5 102620 100
2009-04-21 08:21:30 51°14.871 2°51.922 9.2 354 7.5 102620 100
2009-04-21 08:21:35 51°14.874 2°51.898 10.8 355 7.5 102630 100
2009-04-21 08:21:41 51°14.876 2°51.869 8.8 353 7.5 102630 100
2009-04-21 08:21:46 51°14.879 2°51.845 9 354 7.5 102630 100
2009-04-21 08:21:50 51°14.881 2°51.825 9.1 350 7.5 102630 100
2009-04-21 08:21:55 51°14.884 2°51.801 10.6 352 7.4 102630 100
2009-04-21 08:22:01 51°14.888 2°51.772 10.6 353 7.4 102630 100
2009-04-21 08:22:06 51°14.891 2°51.747 9.2 352 7.4 102620 100
2009-04-21 08:22:10 51°14.893 2°51.728 10.5 352 7.4 102620 100
2009-04-21 08:22:15 51°14.896 2°51.703 9 350 7.4 102630 100
2009-04-21 08:22:21 51°14.899 2°51.674 9.3 350 7.4 102630 100
2009-04-21 08:22:26 51°14.901 2°51.649 10.2 352 7.4 102630 100
2009-04-21 08:22:30 51°14.904 2°51.63 11.5 353 7.4 102630 100
2009-04-21 08:22:35 51°14.906 2°51.606 10.1 351 7.3 102620 100
2009-04-21 08:22:41 51°14.91 2°51.576 10.6 357 7.3 102620 100
2009-04-21 08:22:46 51°14.912 2°51.552 11.2 353 7.3 102630 100
2009-04-21 08:22:50 51°14.915 2°51.533 10.7 354 7.3 102630 100
2009-04-21 08:22:55 51°14.918 2°51.509 9.6 354 7.3 102630 100
2009-04-21 08:23:01 51°14.921 2°51.479 10.7 354 7.3 102630 100
2009-04-21 08:23:05 51°14.924 2°51.46 10 354 7.3 102620 100
2009-04-21 08:23:10 51°14.926 2°51.435 10.1 354 7.3 102620 100
2009-04-21 08:23:15 51°14.929 2°51.41 9 355 7.3 102630 100
2009-04-21 08:23:21 51°14.931 2°51.38 8.9 355 7.3 102630 100
2009-04-21 08:23:25 51°14.934 2°51.36 9 355 7.3 102620 100
2009-04-21 08:23:30 51°14.937 2°51.335 8.9 356 7.3 102620 100
2009-04-21 08:23:35 51°14.939 2°51.311 9.2 356 7.3 102630 100
2009-04-21 08:23:41 51°14.942 2°51.281 9.8 353 7.3 102630 100
2009-04-21 08:23:46 51°14.945 2°51.256 9.3 355 7.3 102630 100
2009-04-21 08:23:50 51°14.947 2°51.236 8.8 357 7.3 102630 100
2009-04-21 08:23:55 51°14.95 2°51.21 8.8 359 7.3 102630 100
2009-04-21 08:24:01 51°14.953 2°51.181 8.5 357 7.3 102630 100
2009-04-21 08:24:06 51°14.955 2°51.156 8.8 358 7.3 102630 100
2009-04-21 08:24:10 51°14.957 2°51.135 9.5 357 7.3 102630 100
2009-04-21 08:24:15 51°14.959 2°51.11 7.4 357 7.2 102640 100
2009-04-21 08:24:21 51°14.962 2°51.08 7.3 355 7.2 102640 100
2009-04-21 08:24:26 51°14.964 2°51.055 8.1 355 7.2 102630 100
2009-04-21 08:24:30 51°14.966 2°51.035 7.7 351 7.2 102630 100
2009-04-21 08:24:35 51°14.968 2°51.011 7.7 353 7.2 102640 100
2009-04-21 08:24:41 51°14.971 2°50.981 7.9 357 7.2 102640 100
2009-04-21 08:24:46 51°14.973 2°50.956 6.7 358 7.2 102640 100
2009-04-21 08:24:50 51°14.975 2°50.936 8.8 357 7.2 102640 100
2009-04-21 08:24:55 51°14.977 2°50.91 7.8 355 7.2 102640 100
2009-04-21 08:25:01 51°14.98 2°50.881 9.1 355 7.2 102640 100
2009-04-21 08:25:05 51°14.982 2°50.861 8.4 357 7.2 102640 100
2009-04-21 08:25:11 51°14.985 2°50.831 8.2 358 7.2 102640 100
2009-04-21 08:25:15 51°14.987 2°50.811 7.9 357 7.2 102630 100
2009-04-21 08:25:21 51°14.989 2°50.781 8 357 7.2 102630 100
2009-04-21 08:25:25 51°14.992 2°50.762 7.7 357 7.2 102640 100
2009-04-21 08:25:30 51°14.994 2°50.738 7 359 7.2 102640 100
2009-04-21 08:25:35 51°14.997 2°50.714 7.2 359 7.2 102640 100
2009-04-21 08:25:41 51°15 2°50.686 6.8 358 7.2 102640 100
2009-04-21 08:25:46 51°15.002 2°50.663 7.1 350 7.2 102630 100
2009-04-21 08:25:50 51°15.004 2°50.645 6.8 351 7.2 102630 100
2009-04-21 08:25:55 51°15.007 2°50.623 4.4 347 7.2 102630 100
2009-04-21 08:26:01 51°15.009 2°50.596 6.2 350 7.2 102630 100
2009-04-21 08:26:05 51°15.012 2°50.578 6.9 351 7.2 102640 100
2009-04-21 08:26:10 51°15.014 2°50.556 6.3 352 7.2 102640 100
2009-04-21 08:26:15 51°15.016 2°50.536 5.9 352 7.2 102640 100
2009-04-21 08:26:21 51°15.021 2°50.515 5.3 353 7.2 102640 100
2009-04-21 08:26:26 51°15.026 2°50.501 6.5 357 7.2 102640 100
2009-04-21 08:26:30 51°15.031 2°50.491 5.9 354 7.2 102640 100
2009-04-21 08:26:35 51°15.037 2°50.481 5.1 350 7.2 102640 100
2009-04-21 08:26:41 51°15.044 2°50.471 5.6 352 7.2 102640 100
2009-04-21 08:26:46 51°15.05 2°50.464 6.8 353 7.2 102640 100
2009-04-21 08:26:50 51°15.054 2°50.459 5.6 354 7.2 102640 100
2009-04-21 08:26:55 51°15.059 2°50.454 6.4 351 7.2 102650 100
2009-04-21 08:27:01 51°15.066 2°50.449 6 349 7.2 102650 100
2009-04-21 08:27:06 51°15.072 2°50.447 6.7 347 7.3 102650 100
2009-04-21 08:27:10 51°15.077 2°50.445 7.4 281 7.3 102650 100
2009-04-21 08:27:15 51°15.083 2°50.444 6.9 340 7.3 102640 100
2009-04-21 08:27:21 51°15.09 2°50.444 6 280 7.3 102640 100
2009-04-21 08:27:26 51°15.096 2°50.444 6.6 337 7.3 102650 100
2009-04-21 08:27:30 51°15.101 2°50.446 5.9 333 7.3 102650 100
2009-04-21 08:27:35 51°15.106 2°50.449 6.8 331 7.3 102640 100
2009-04-21 08:27:41 51°15.113 2°50.453 4.4 279 7.3 102640 100
2009-04-21 08:27:45 51°15.117 2°50.457 5.6 327 7.3 102650 100
2009-04-21 08:27:50 51°15.122 2°50.462 6.1 323 7.3 102650 100
2009-04-21 08:27:55 51°15.126 2°50.468 6.4 321 7.3 102640 100
2009-04-21 08:28:01 51°15.131 2°50.476 5.3 286 7.3 102640 100
2009-04-21 08:28:06 51°15.135 2°50.482 4.7 318 7.3 102640 100
2009-04-21 08:28:10 51°15.138 2°50.488 5.7 309 7.3 102640 100
2009-04-21 08:28:15 51°15.141 2°50.495 6.1 316 7.3 102640 100
2009-04-21 08:28:21 51°15.144 2°50.504 6.1 279 7.3 102640 100
2009-04-21 08:28:26 51°15.146 2°50.511 6.3 26 7.3 102640 100
2009-04-21 08:28:30 51°15.148 2°50.516 5.4 282 7.3 102640 100
2009-04-21 08:28:35 51°15.151 2°50.522 6.3 26 7.4 102640 100
2009-04-21 08:28:41 51°15.153 2°50.53 6.6 305 7.4 102640 100
2009-04-21 08:28:46 51°15.154 2°50.536 5.3 22 7.4 102640 100
2009-04-21 08:28:50 51°15.155 2°50.54 5.2 285 7.4 102640 100
2009-04-21 08:28:55 51°15.155 2°50.546 5.8 24 7.4 102640 100
2009-04-21 08:29:01 51°15.155 2°50.551 5.7 304 7.4 102640 100
2009-04-21 08:29:06 51°15.155 2°50.555 4.6 247 7.4 102640 100
2009-04-21 08:29:10 51°15.156 2°50.558 4.9 306 7.4 102640 100
2009-04-21 08:29:15 51°15.156 2°50.561 4.1 252 7.4 102650 100
2009-04-21 08:29:20 51°15.156 2°50.564 5.6 279 7.4 102650 100
2009-04-21 08:29:26 51°15.157 2°50.568 5.2 252 7.4 102650 100
2009-04-21 08:29:31 51°15.157 2°50.571 6.6 282 7.4 102650 100
2009-04-21 08:29:35 51°15.157 2°50.574 7.3 256 7.4 102650 100
2009-04-21 08:29:41 51°15.157 2°50.577 6.5 287 7.4 102650 100
2009-04-21 08:29:46 51°15.157 2°50.58 8.8 255 7.4 102650 100
2009-04-21 08:29:50 51°15.157 2°50.583 6.2 304 7.4 102650 100
2009-04-21 08:29:55 51°15.157 2°50.586 4.9 263 7.4 102650 100
2009-04-21 08:30:01 51°15.157 2°50.589 5.7 281 7.4 102650 100
2009-04-21 08:30:05 51°15.157 2°50.591 5.4 264 7.4 102650 100
2009-04-21 08:30:10 51°15.157 2°50.594 6.1 306 7.4 102650 100
2009-04-21 08:30:15 51°15.157 2°50.597 5.3 262 7.5 102650 100
2009-04-21 08:30:21 51°15.157 2°50.6 5.6 282 7.5 102650 100
2009-04-21 08:30:25 51°15.157 2°50.602 4.3 264 7.5 102660 100
2009-04-21 08:30:30 51°15.156 2°50.605 4.5 285 7.5 102660 100
2009-04-21 08:30:35 51°15.156 2°50.607 5.1 263 7.5 102660 100
2009-04-21 08:30:41 51°15.156 2°50.611 4.9 281 7.5 102660 100
2009-04-21 08:30:46 51°15.156 2°50.613 5.1 263 7.5 102650 100
2009-04-21 08:30:50 51°15.156 2°50.615 4.6 305 7.5 102650 100
2009-04-21 08:30:55 51°15.155 2°50.618 3.8 264 7.5 102660 100
2009-04-21 08:31:01 51°15.155 2°50.621 5.1 305 7.5 102660 100
2009-04-21 08:31:06 51°15.155 2°50.623 5.1 263 7.5 102660 100
2009-04-21 08:31:10 51°15.155 2°50.625 4.5 303 7.5 102660 100
2009-04-21 08:31:15 51°15.155 2°50.628 5.1 262 7.5 102660 100
2009-04-21 08:31:21 51°15.154 2°50.631 5.1 286 7.5 102660 100
2009-04-21 08:31:26 51°15.154 2°50.634 4.8 263 7.4 102660 100
2009-04-21 08:31:30 51°15.154 2°50.636 4.4 305 7.4 102660 100
2009-04-21 08:31:35 51°15.154 2°50.638 3.5 263 7.4 102650 100
2009-04-21 08:31:41 51°15.154 2°50.641 5.2 281 7.4 102650 100
2009-04-21 08:31:46 51°15.153 2°50.644 3.9 262 7.4 102650 100
2009-04-21 08:31:50 51°15.153 2°50.646 4.2 309 7.4 102650 100
2009-04-21 08:31:55 51°15.153 2°50.648 5 261 7.4 102660 100
2009-04-21 08:32:01 51°15.153 2°50.651 4.6 278 7.4 102660 100
2009-04-21 08:32:06 51°15.153 2°50.654 3.7 262 7.4 102660 100
2009-04-21 08:32:10 51°15.153 2°50.655 3.7 309 7.4 102660 100
2009-04-21 08:32:15 51°15.153 2°50.658 3.5 264 7.4 102650 100
2009-04-21 08:32:21 51°15.153 2°50.661 3.9 280 7.4 102650 100
2009-04-21 08:32:26 51°15.153 2°50.663 4.1 264 7.4 102650 100
2009-04-21 08:32:30 51°15.153 2°50.665 3.3 285 7.4 102650 100
2009-04-21 08:32:35 51°15.153 2°50.668 2.8 264 7.4 102650 100
2009-04-21 08:32:41 51°15.153 2°50.671 3.1 285 7.4 102650 100
2009-04-21 08:32:45 51°15.153 2°50.673 3.8 263 7.4 102660 100
2009-04-21 08:32:50 51°15.152 2°50.675 3.9 281 7.4 102660 100
2009-04-21 08:32:55 51°15.152 2°50.678 3.6 262 7.4 102650 100
2009-04-21 08:33:01 51°15.152 2°50.681 3.7 305 7.4 102650 100
2009-04-21 08:33:06 51°15.152 2°50.683 3.3 263 7.4 102650 100
2009-04-21 08:33:10 51°15.152 2°50.685 4.2 304 7.4 102650 100
2009-04-21 08:33:15 51°15.152 2°50.687 3.6 263 7.3 102650 100
2009-04-21 08:33:21 51°15.153 2°50.69 4 310 7.3 102650 100
2009-04-21 08:33:26 51°15.153 2°50.693 3.5 261 7.3 102650 100
2009-04-21 08:33:30 51°15.153 2°50.695 3.1 305 7.3 102650 100
2009-04-21 08:33:35 51°15.153 2°50.697 2.9 264 7.4 102660 100
2009-04-21 08:33:41 51°15.152 2°50.7 3.1 283 7.4 102660 100
2009-04-21 08:33:46 51°15.153 2°50.702 2.9 265 7.3 102650 100
2009-04-21 08:33:50 51°15.153 2°50.705 3.9 287 7.3 102650 100
2009-04-21 08:33:55 51°15.153 2°50.707 3.7 262 7.3 102650 100
2009-04-21 08:34:01 51°15.153 2°50.71 4.5 284 7.3 102650 100
2009-04-21 08:34:06 51°15.153 2°50.712 3.7 263 7.4 102650 100
2009-04-21 08:34:10 51°15.153 2°50.714 5.5 304 7.4 102650 100
2009-04-21 08:34:15 51°15.153 2°50.717 5.3 264 7.4 102650 100
2009-04-21 08:34:21 51°15.153 2°50.72 5.5 284 7.4 102650 100
2009-04-21 08:34:25 51°15.153 2°50.721 5.3 263 7.4 102650 100
2009-04-21 08:34:31 51°15.153 2°50.725 3.7 308 7.4 102650 100
2009-04-21 08:34:35 51°15.153 2°50.727 4.4 265 7.4 102650 100
2009-04-21 08:34:41 51°15.153 2°50.731 5.2 280 7.4 102650 100
2009-04-21 08:34:45 51°15.153 2°50.733 3.8 264 7.4 102650 100
2009-04-21 08:34:50 51°15.152 2°50.737 4.6 281 7.4 102650 100
2009-04-21 08:34:55 51°15.152 2°50.741 4.5 264 7.3 102650 100
2009-04-21 08:35:01 51°15.151 2°50.748 4.1 284 7.3 102650 100
2009-04-21 08:35:06 51°15.149 2°50.754 4.8 268 7.3 102650 100
2009-04-21 08:35:10 51°15.148 2°50.759 5.2 55 7.3 102650 100
2009-04-21 08:35:15 51°15.146 2°50.766 5.1 15 7.3 102650 100
2009-04-21 08:35:21 51°15.142 2°50.774 4.9 52 7.3 102650 100
2009-04-21 08:35:26 51°15.139 2°50.78 4.1 20 7.4 102650 100
2009-04-21 08:35:30 51°15.136 2°50.784 4.2 57 7.4 102650 100
2009-04-21 08:35:35 51°15.132 2°50.789 4 26 7.3 102650 100
2009-04-21 08:35:41 51°15.127 2°50.793 2.4 58 7.3 102650 100
2009-04-21 08:35:46 51°15.123 2°50.796 2.4 19 7.3 102650 100
2009-04-21 08:35:51 51°15.118 2°50.798 1.8 78 7.3 102650 100
2009-04-21 08:35:55 51°15.115 2°50.798 3.5 19 7.3 102650 100
2009-04-21 08:36:01 51°15.109 2°50.798 3.7 40 7.3 102650 100
2009-04-21 08:36:06 51°15.105 2°50.796 4.2 37 7.4 102650 100
2009-04-21 08:36:10 51°15.102 2°50.794 4 36 7.4 102650 100
2009-04-21 08:36:15 51°15.099 2°50.791 4.2 30 7.4 102650 100
2009-04-21 08:36:21 51°15.094 2°50.787 4.1 26 7.4 102650 100
2009-04-21 08:36:26 51°15.091 2°50.782 4.1 21 7.4 102640 100
2009-04-21 08:36:30 51°15.089 2°50.777 4.3 28 7.4 102640 100
2009-04-21 08:36:35 51°15.086 2°50.771 4.7 13 7.4 102640 100
2009-04-21 08:36:41 51°15.083 2°50.763 4.7 15 7.4 102640 100
2009-04-21 08:36:46 51°15.08 2°50.756 5.7 16 7.3 102640 100
2009-04-21 08:36:50 51°15.078 2°50.75 6.8 19 7.3 102640 100
2009-04-21 08:36:55 51°15.077 2°50.742 6.1 15 7.3 102640 100
2009-04-21 08:37:01 51°15.074 2°50.732 5.6 21 7.3 102640 100
2009-04-21 08:37:06 51°15.073 2°50.724 6.7 15 7.3 102640 100
2009-04-21 08:37:10 51°15.072 2°50.717 6.7 17 7.3 102640 100
2009-04-21 08:37:15 51°15.071 2°50.709 6.4 18 7.3 102640 100
2009-04-21 08:37:21 51°15.069 2°50.699 6.7 18 7.3 102640 100
2009-04-21 08:37:26 51°15.068 2°50.691 6.1 19 7.4 102640 100
2009-04-21 08:37:30 51°15.067 2°50.685 6 21 7.4 102640 100
2009-04-21 08:37:35 51°15.067 2°50.677 5.3 21 7.4 102640 100
2009-04-21 08:37:41 51°15.066 2°50.667 5.5 18 7.4 102640 100
2009-04-21 08:37:46 51°15.065 2°50.66 5.6 20 7.4 102640 100
2009-04-21 08:37:50 51°15.064 2°50.654 5.6 18 7.4 102640 100
2009-04-21 08:37:55 51°15.063 2°50.646 5.8 17 7.3 102640 100
2009-04-21 08:38:01 51°15.063 2°50.637 5.3 19 7.3 102640 100
2009-04-21 08:38:06 51°15.062 2°50.63 5.8 16 7.3 102640 100
2009-04-21 08:38:10 51°15.061 2°50.624 5.8 19 7.3 102640 100
2009-04-21 08:38:15 51°15.06 2°50.617 5.4 19 7.3 102650 100
2009-04-21 08:38:21 51°15.059 2°50.608 5 22 7.3 102650 100
2009-04-21 08:38:26 51°15.058 2°50.601 4.8 22 7.3 102640 100
2009-04-21 08:38:31 51°15.057 2°50.594 4.5 22 7.3 102640 100
2009-04-21 08:38:35 51°15.056 2°50.588 4.5 23 7.3 102640 100
2009-04-21 08:38:41 51°15.054 2°50.58 4.7 21 7.3 102640 100
2009-04-21 08:38:46 51°15.053 2°50.573 4.8 24 7.3 102640 100
2009-04-21 08:38:50 51°15.052 2°50.567 5 24 7.3 102640 100
2009-04-21 08:38:55 51°15.05 2°50.56 5.1 23 7.3 102640 100
2009-04-21 08:39:01 51°15.048 2°50.552 4.7 28 7.3 102640 100
2009-04-21 08:39:06 51°15.047 2°50.544 4.7 24 7.3 102650 100
2009-04-21 08:39:10 51°15.046 2°50.538 5 24 7.3 102650 100
2009-04-21 08:39:15 51°15.045 2°50.531 5 27 7.3 102640 100
2009-04-21 08:39:21 51°15.044 2°50.522 4.7 25 7.3 102640 100
2009-04-21 08:39:25 51°15.043 2°50.516 3.6 25 7.3 102650 100
2009-04-21 08:39:30 51°15.043 2°50.508 3.8 21 7.3 102650 100
2009-04-21 08:39:35 51°15.042 2°50.501 4 22 7.3 102650 100
2009-04-21 08:39:41 51°15.041 2°50.492 4 23 7.3 102650 100
2009-04-21 08:39:46 51°15.041 2°50.484 4.1 18 7.3 102640 100
2009-04-21 08:39:50 51°15.041 2°50.478 4.8 17 7.3 102640 100
2009-04-21 08:39:55 51°15.041 2°50.471 4.6 18 7.3 102650 100
2009-04-21 08:40:01 51°15.041 2°50.462 4.5 18 7.3 102650 100
2009-04-21 08:40:06 51°15.041 2°50.454 4.7 22 7.3 102640 100
2009-04-21 08:40:10 51°15.04 2°50.448 4.5 23 7.3 102640 100
2009-04-21 08:40:15 51°15.04 2°50.441 4.4 21 7.3 102640 100
2009-04-21 08:40:21 51°15.04 2°50.432 4.5 24 7.3 102640 100
2009-04-21 08:40:26 51°15.039 2°50.424 5 25 7.3 102650 100
2009-04-21 08:40:30 51°15.039 2°50.419 4.8 23 7.3 102650 100
2009-04-21 08:40:35 51°15.039 2°50.411 4.2 24 7.3 102650 100
2009-04-21 08:40:41 51°15.039 2°50.402 4.7 25 7.3 102650 100
2009-04-21 08:40:46 51°15.039 2°50.395 4.7 25 7.3 102640 100
2009-04-21 08:40:50 51°15.039 2°50.389 4.6 25 7.3 102640 100
2009-04-21 08:40:55 51°15.038 2°50.382 5.3 25 7.3 102640 100
2009-04-21 08:41:01 51°15.038 2°50.373 5.3 25 7.3 102640 100
2009-04-21 08:41:06 51°15.037 2°50.366 4.8 28 7.3 102650 100
2009-04-21 08:41:10 51°15.036 2°50.361 5 31 7.3 102650 100
2009-04-21 08:41:15 51°15.035 2°50.354 5.6 32 7.3 102650 100
2009-04-21 08:41:21 51°15.034 2°50.346 4.7 33 7.3 102650 100
2009-04-21 08:41:25 51°15.033 2°50.34 5 31 7.4 102640 100
2009-04-21 08:41:31 51°15.031 2°50.332 4.8 32 7.4 102640 100
2009-04-21 08:41:35 51°15.03 2°50.327 5.3 35 7.3 102650 100
2009-04-21 08:41:41 51°15.027 2°50.319 4.9 35 7.3 102650 100
2009-04-21 08:41:46 51°15.026 2°50.313 5.3 38 7.4 102650 100
2009-04-21 08:41:50 51°15.024 2°50.309 5 38 7.4 102650 100
2009-04-21 08:41:55 51°15.022 2°50.303 5.1 37 7.4 102650 100
2009-04-21 08:42:01 51°15.018 2°50.296 5 39 7.4 102650 100
2009-04-21 08:42:06 51°15.016 2°50.29 4.3 39 7.4 102650 100
2009-04-21 08:42:10 51°15.013 2°50.286 4 38 7.4 102650 100
2009-04-21 08:42:15 51°15.01 2°50.281 3.7 44 7.4 102640 100
2009-04-21 08:42:21 51°15.007 2°50.275 4.1 44 7.4 102640 100
2009-04-21 08:42:26 51°15.003 2°50.27 3.4 42 7.3 102650 100
2009-04-21 08:42:30 51°15 2°50.266 4 44 7.3 102650 100
2009-04-21 08:42:35 51°14.997 2°50.262 3.7 27 7.3 102650 100
2009-04-21 08:42:41 51°14.993 2°50.257 3.7 44 7.3 102650 100
2009-04-21 08:42:46 51°14.989 2°50.252 3.6 40 7.3 102650 100
2009-04-21 08:42:50 51°14.986 2°50.249 3.6 40 7.3 102650 100
2009-04-21 08:42:55 51°14.983 2°50.244 3.7 39 7.3 102650 100
2009-04-21 08:43:01 51°14.979 2°50.238 3.7 35 7.3 102650 100
2009-04-21 08:43:06 51°14.975 2°50.234 3.5 33 7.3 102650 100
2009-04-21 08:43:10 51°14.973 2°50.229 3.6 39 7.3 102650 100
2009-04-21 08:43:15 51°14.97 2°50.225 3.1 35 7.3 102650 100
2009-04-21 08:43:21 51°14.966 2°50.219 3.2 34 7.3 102650 100
2009-04-21 08:43:25 51°14.963 2°50.214 2.8 35 7.3 102650 100
2009-04-21 08:43:30 51°14.96 2°50.209 2.9 33 7.3 102650 100
2009-04-21 08:43:35 51°14.957 2°50.204 2.9 31 7.3 102650 100
2009-04-21 08:43:41 51°14.953 2°50.198 2.7 31 7.3 102650 100
2009-04-21 08:43:45 51°14.951 2°50.194 2.5 31 7.3 102650 100
2009-04-21 08:43:50 51°14.947 2°50.189 2.9 38 7.3 102650 100
2009-04-21 08:43:55 51°14.944 2°50.183 2.9 37 7.3 102650 100
2009-04-21 08:44:01 51°14.94 2°50.177 2.8 39 7.3 102650 100
2009-04-21 08:44:06 51°14.937 2°50.172 2.8 38 7.3 102650 100
2009-04-21 08:44:10 51°14.935 2°50.168 2.4 34 7.3 102650 100
2009-04-21 08:44:15 51°14.932 2°50.162 2.4 37 7.3 102650 100
2009-04-21 08:44:21 51°14.928 2°50.156 2.3 33 7.3 102650 100
2009-04-21 08:44:26 51°14.925 2°50.151 2.3 39 7.4 102650 100
2009-04-21 08:44:30 51°14.922 2°50.147 2.5 41 7.4 102650 100
2009-04-21 08:44:35 51°14.919 2°50.142 2.6 43 7.4 102650 100
2009-04-21 08:44:41 51°14.915 2°50.136 3 50 7.4 102650 100
2009-04-21 08:44:46 51°14.912 2°50.131 3.2 18 7.4 102650 100
2009-04-21 08:44:50 51°14.909 2°50.127 3.4 42 7.4 102650 100
2009-04-21 08:44:55 51°14.906 2°50.122 3.8 41 7.4 102650 100
2009-04-21 08:45:01 51°14.902 2°50.115 3.5 37 7.4 102650 100
2009-04-21 08:45:06 51°14.899 2°50.11 3.3 43 7.4 102650 100
2009-04-21 08:45:10 51°14.897 2°50.106 3.4 34 7.4 102650 100
2009-04-21 08:45:15 51°14.893 2°50.101 3.6 38 7.4 102640 100
2009-04-21 08:45:21 51°14.89 2°50.095 3.2 37 7.4 102640 100
2009-04-21 08:45:26 51°14.887 2°50.089 3.5 40 7.5 102640 100
2009-04-21 08:45:31 51°14.883 2°50.084 3.4 38 7.5 102640 100
2009-04-21 08:45:35 51°14.881 2°50.08 3.4 41 7.5 102650 100
2009-04-21 08:45:41 51°14.877 2°50.074 3.5 41 7.5 102650 100
2009-04-21 08:45:45 51°14.875 2°50.07 3.4 39 7.5 102640 100
2009-04-21 08:45:50 51°14.871 2°50.064 3.1 42 7.5 102640 100
2009-04-21 08:45:55 51°14.868 2°50.059 3.4 41 7.5 102650 100
2009-04-21 08:46:01 51°14.865 2°50.053 3.3 79 7.5 102650 100
2009-04-21 08:46:06 51°14.861 2°50.048 3 22 7.5 102650 100
2009-04-21 08:46:10 51°14.859 2°50.044 3.2 53 7.5 102650 100
2009-04-21 08:46:15 51°14.856 2°50.039 3.1 37 7.5 102650 100
2009-04-21 08:46:21 51°14.852 2°50.033 2.4 36 7.5 102650 100
2009-04-21 08:46:26 51°14.849 2°50.027 3.2 19 7.4 102640 100
2009-04-21 08:46:30 51°14.846 2°50.023 2.7 55 7.4 102640 100
2009-04-21 08:46:35 51°14.843 2°50.018 3.2 43 7.4 102650 100
2009-04-21 08:46:41 51°14.839 2°50.012 3 51 7.4 102650 100
2009-04-21 08:46:46 51°14.836 2°50.007 3 25 7.4 102640 100
2009-04-21 08:46:50 51°14.834 2°50.003 2.7 56 7.4 102640 100
2009-04-21 08:46:55 51°14.83 2°49.998 2.9 26 7.4 102650 100
2009-04-21 08:47:01 51°14.827 2°49.992 2.6 55 7.4 102650 100
2009-04-21 08:47:06 51°14.823 2°49.987 3.4 42 7.4 102640 100
2009-04-21 08:47:10 51°14.821 2°49.983 2.6 44 7.4 102640 100
2009-04-21 08:47:15 51°14.818 2°49.979 2.4 42 7.4 102650 100
2009-04-21 08:47:21 51°14.814 2°49.973 2.3 50 7.4 102650 100
2009-04-21 08:47:26 51°14.811 2°49.968 2.4 43 7.4 102640 100
2009-04-21 08:47:30 51°14.808 2°49.964 2 44 7.4 102640 100
2009-04-21 08:47:35 51°14.805 2°49.959 1.9 45 7.4 102640 100
2009-04-21 08:47:41 51°14.801 2°49.953 2 37 7.4 102640 100
2009-04-21 08:47:46 51°14.798 2°49.949 2.6 36 7.4 102640 100
2009-04-21 08:47:50 51°14.795 2°49.945 2.8 41 7.4 102640 100
2009-04-21 08:47:55 51°14.792 2°49.941 2.9 40 7.4 102640 100
2009-04-21 08:48:01 51°14.788 2°49.935 2.9 43 7.4 102640 100
2009-04-21 08:48:05 51°14.785 2°49.931 3 36 7.4 102650 100
2009-04-21 08:48:11 51°14.782 2°49.926 2.7 39 7.4 102650 100
2009-04-21 08:48:15 51°14.779 2°49.922 2.9 40 7.4 102640 100
2009-04-21 08:48:21 51°14.775 2°49.916 2.4 42 7.4 102640 100
2009-04-21 08:48:26 51°14.772 2°49.911 2.7 38 7.4 102640 100
2009-04-21 08:48:30 51°14.77 2°49.908 3.4 36 7.4 102640 100
2009-04-21 08:48:35 51°14.766 2°49.903 3.3 38 7.4 102640 100
2009-04-21 08:48:41 51°14.763 2°49.897 3.1 36 7.4 102640 100
2009-04-21 08:48:46 51°14.76 2°49.892 3.4 28 7.5 102640 100
2009-04-21 08:48:50 51°14.757 2°49.888 3.3 38 7.5 102640 100
2009-04-21 08:48:55 51°14.754 2°49.883 2.8 35 7.4 102640 100
2009-04-21 08:49:01 51°14.749 2°49.877 2.9 34 7.4 102640 100
2009-04-21 08:49:06 51°14.746 2°49.871 3.2 38 7.5 102640 100
2009-04-21 08:49:10 51°14.743 2°49.867 2.9 36 7.5 102640 100
2009-04-21 08:49:15 51°14.74 2°49.862 3.6 35 7.5 102640 100
2009-04-21 08:49:21 51°14.736 2°49.855 3.8 35 7.5 102640 100
2009-04-21 08:49:26 51°14.733 2°49.85 3.6 35 7.5 102640 100
2009-04-21 08:49:30 51°14.73 2°49.845 3.8 34 7.5 102640 100
2009-04-21 08:49:35 51°14.727 2°49.84 3.5 30 7.5 102640 100
2009-04-21 08:49:41 51°14.723 2°49.833 3.2 35 7.5 102640 100
2009-04-21 08:49:46 51°14.719 2°49.828 3.4 33 7.5 102640 100
2009-04-21 08:49:50 51°14.716 2°49.823 3.1 34 7.5 102640 100
2009-04-21 08:49:55 51°14.713 2°49.818 3.4 34 7.5 102640 100
2009-04-21 08:50:01 51°14.709 2°49.811 3.7 28 7.5 102640 100
2009-04-21 08:50:06 51°14.705 2°49.805 3.5 30 7.5 102640 100
2009-04-21 08:50:10 51°14.702 2°49.801 3.6 34 7.5 102640 100
2009-04-21 08:50:15 51°14.699 2°49.795 2.9 32 7.5 102640 100
2009-04-21 08:50:21 51°14.694 2°49.788 3.7 29 7.5 102640 100
2009-04-21 08:50:25 51°14.691 2°49.784 3.2 28 7.5 102640 100
2009-04-21 08:50:30 51°14.688 2°49.778 3 30 7.5 102640 100
2009-04-21 08:50:35 51°14.684 2°49.773 3.5 30 7.5 102640 100
2009-04-21 08:50:41 51°14.68 2°49.766 3.6 31 7.5 102640 100
2009-04-21 08:50:46 51°14.677 2°49.761 3.6 27 7.5 102640 100
2009-04-21 08:50:50 51°14.674 2°49.756 4 25 7.5 102640 100
2009-04-21 08:50:55 51°14.67 2°49.751 3.8 27 7.5 102640 100
2009-04-21 08:51:01 51°14.666 2°49.744 3.5 25 7.5 102640 100
2009-04-21 08:51:06 51°14.663 2°49.738 3.2 25 7.5 102640 100
2009-04-21 08:51:10 51°14.66 2°49.734 4.2 26 7.5 102640 100
2009-04-21 08:51:15 51°14.656 2°49.728 3.8 24 7.5 102640 100
2009-04-21 08:51:21 51°14.652 2°49.722 3.9 24 7.5 102640 100
2009-04-21 08:51:26 51°14.649 2°49.716 3.6 28 7.5 102640 100
2009-04-21 08:51:30 51°14.646 2°49.712 3 32 7.5 102640 100
2009-04-21 08:51:35 51°14.642 2°49.706 3.2 28 7.5 102630 100
2009-04-21 08:51:41 51°14.638 2°49.7 3.6 27 7.5 102630 100
2009-04-21 08:51:46 51°14.634 2°49.694 4.3 29 7.5 102640 100
2009-04-21 08:51:51 51°14.631 2°49.689 3.4 28 7.5 102640 100
2009-04-21 08:51:55 51°14.628 2°49.684 3.7 28 7.5 102640 100
2009-04-21 08:52:01 51°14.624 2°49.678 4 25 7.5 102640 100
2009-04-21 08:52:06 51°14.62 2°49.672 3.3 24 7.5 102640 100
2009-04-21 08:52:11 51°14.617 2°49.667 3.5 32 7.5 102640 100
2009-04-21 08:52:15 51°14.614 2°49.662 3.4 30 7.5 102630 100
2009-04-21 08:52:21 51°14.61 2°49.656 3.5 35 7.5 102630 100
2009-04-21 08:52:26 51°14.606 2°49.65 3.3 32 7.5 102640 100
2009-04-21 08:52:31 51°14.603 2°49.645 3.4 28 7.5 102640 100
2009-04-21 08:52:35 51°14.6 2°49.64 3.3 31 7.5 102640 100
2009-04-21 08:52:41 51°14.596 2°49.634 3.1 30 7.5 102640 100
2009-04-21 08:52:46 51°14.592 2°49.628 3.4 30 7.5 102640 100
2009-04-21 08:52:51 51°14.589 2°49.622 3.4 31 7.5 102640 100
2009-04-21 08:52:55 51°14.586 2°49.618 3.8 32 7.5 102630 100
2009-04-21 08:53:01 51°14.582 2°49.611 3 33 7.5 102630 100
2009-04-21 08:53:06 51°14.578 2°49.605 3.4 35 7.5 102640 100
2009-04-21 08:53:11 51°14.575 2°49.6 3.9 25 7.5 102640 100
2009-04-21 08:53:15 51°14.572 2°49.595 3.8 31 7.5 102630 100
2009-04-21 08:53:21 51°14.568 2°49.588 3.9 37 7.5 102630 100
2009-04-21 08:53:25 51°14.565 2°49.584 4.2 33 7.5 102640 100
2009-04-21 08:53:30 51°14.562 2°49.578 4 33 7.5 102640 100
2009-04-21 08:53:36 51°14.557 2°49.572 4.1 39 7.5 102640 100
2009-04-21 08:53:41 51°14.554 2°49.566 3.6 38 7.5 102640 100
2009-04-21 08:53:46 51°14.55 2°49.561 3.7 41 7.5 102640 100
2009-04-21 08:53:50 51°14.547 2°49.556 4.1 40 7.5 102640 100
2009-04-21 08:53:55 51°14.544 2°49.551 3.8 39 7.5 102640 100
2009-04-21 08:54:01 51°14.54 2°49.544 3.6 41 7.5 102640 100
2009-04-21 08:54:06 51°14.536 2°49.538 4.1 39 7.6 102640 100
2009-04-21 08:54:10 51°14.534 2°49.533 3.4 39 7.6 102640 100
2009-04-21 08:54:15 51°14.53 2°49.528 3.6 38 7.5 102640 100
2009-04-21 08:54:20 51°14.526 2°49.522 3.5 38 7.5 102640 100
2009-04-21 08:54:26 51°14.522 2°49.515 3.3 37 7.5 102640 100
2009-04-21 08:54:30 51°14.52 2°49.511 3.2 36 7.5 102640 100
2009-04-21 08:54:35 51°14.516 2°49.505 3 36 7.5 102640 100
2009-04-21 08:54:41 51°14.512 2°49.498 3 37 7.5 102640 100
2009-04-21 08:54:46 51°14.508 2°49.493 3.1 34 7.5 102640 100
2009-04-21 08:54:50 51°14.505 2°49.488 3.4 36 7.5 102640 100
2009-04-21 08:54:55 51°14.502 2°49.483 2.7 34 7.5 102640 100
2009-04-21 08:55:01 51°14.497 2°49.476 2.9 32 7.5 102640 100
2009-04-21 08:55:06 51°14.494 2°49.47 3.5 30 7.5 102640 100
2009-04-21 08:55:11 51°14.49 2°49.465 3 27 7.5 102640 100
2009-04-21 08:55:15 51°14.487 2°49.46 3.2 28 7.5 102640 100
2009-04-21 08:55:21 51°14.483 2°49.454 3.5 35 7.5 102640 100
2009-04-21 08:55:26 51°14.479 2°49.448 3.3 35 7.5 102640 100
2009-04-21 08:55:31 51°14.476 2°49.442 3.2 35 7.5 102640 100
2009-04-21 08:55:36 51°14.472 2°49.437 3.2 33 7.5 102640 100
2009-04-21 08:55:41 51°14.469 2°49.431 3.4 34 7.5 102640 100
2009-04-21 08:55:46 51°14.465 2°49.426 3.8 28 7.5 102640 100
2009-04-21 08:55:50 51°14.462 2°49.421 3.4 24 7.5 102640 100
2009-04-21 08:55:55 51°14.458 2°49.416 3.7 28 7.5 102630 100
2009-04-21 08:56:01 51°14.454 2°49.409 4.2 26 7.5 102630 100
2009-04-21 08:56:06 51°14.451 2°49.403 3.8 23 7.5 102640 100
2009-04-21 08:56:10 51°14.448 2°49.399 4.2 25 7.5 102640 100
2009-04-21 08:56:15 51°14.444 2°49.393 4.3 28 7.5 102630 100
2009-04-21 08:56:21 51°14.44 2°49.387 4.5 29 7.5 102630 100
2009-04-21 08:56:26 51°14.436 2°49.382 4.1 33 7.5 102640 100
2009-04-21 08:56:30 51°14.433 2°49.377 3.8 28 7.5 102640 100
2009-04-21 08:56:35 51°14.43 2°49.372 3.8 26 7.5 102640 100
2009-04-21 08:56:40 51°14.426 2°49.366 3.7 29 7.5 102640 100
2009-04-21 08:56:46 51°14.422 2°49.359 3.8 28 7.5 102630 100
2009-04-21 08:56:50 51°14.419 2°49.355 3.9 29 7.5 102630 100
2009-04-21 08:56:55 51°14.415 2°49.349 3.7 29 7.5 102640 100
2009-04-21 08:57:00 51°14.412 2°49.344 3.8 32 7.5 102640 100
2009-04-21 08:57:05 51°14.408 2°49.339 3.3 33 7.5 102640 100
2009-04-21 08:57:10 51°14.405 2°49.333 3.5 25 7.5 102640 100
2009-04-21 08:57:15 51°14.401 2°49.328 4 22 7.5 102640 100
2009-04-21 08:57:21 51°14.397 2°49.321 3.2 24 7.5 102640 100
2009-04-21 08:57:25 51°14.394 2°49.317 3.4 26 7.5 102640 100
2009-04-21 08:57:30 51°14.391 2°49.311 4.1 26 7.5 102640 100
2009-04-21 08:57:35 51°14.387 2°49.306 4.4 28 7.5 102640 100
2009-04-21 08:57:41 51°14.383 2°49.3 3.7 29 7.5 102640 100
2009-04-21 08:57:45 51°14.38 2°49.295 3.8 28 7.5 102630 100
2009-04-21 08:57:50 51°14.377 2°49.29 3.6 24 7.5 102630 100
2009-04-21 08:57:55 51°14.373 2°49.285 3.7 27 7.5 102640 100
2009-04-21 08:58:01 51°14.369 2°49.279 4 31 7.5 102640 100
2009-04-21 08:58:05 51°14.367 2°49.275 4.3 26 7.5 102640 100
2009-04-21 08:58:10 51°14.363 2°49.27 4.2 26 7.5 102640 100
2009-04-21 08:58:15 51°14.359 2°49.264 3.9 31 7.4 102640 100
2009-04-21 08:58:21 51°14.355 2°49.258 4 30 7.4 102640 100
2009-04-21 08:58:26 51°14.352 2°49.253 4.5 29 7.5 102640 100
2009-04-21 08:58:30 51°14.349 2°49.249 4.3 30 7.5 102640 100
2009-04-21 08:58:35 51°14.346 2°49.244 4.3 33 7.5 102630 100
2009-04-21 08:58:41 51°14.341 2°49.238 4.3 31 7.5 102630 100
2009-04-21 08:58:46 51°14.338 2°49.232 3.9 33 7.5 102630 100
2009-04-21 08:58:50 51°14.335 2°49.228 4 30 7.5 102630 100
2009-04-21 08:58:55 51°14.332 2°49.223 3.9 31 7.4 102630 100
2009-04-21 08:59:01 51°14.328 2°49.216 4.1 34 7.4 102630 100
2009-04-21 08:59:06 51°14.324 2°49.211 3.8 29 7.4 102630 100
2009-04-21 08:59:11 51°14.321 2°49.206 3.9 32 7.4 102630 100
2009-04-21 08:59:15 51°14.318 2°49.201 3.6 37 7.4 102640 100
2009-04-21 08:59:20 51°14.314 2°49.196 3.5 36 7.4 102640 100
2009-04-21 08:59:26 51°14.31 2°49.19 3.9 34 7.4 102630 100
2009-04-21 08:59:31 51°14.307 2°49.185 3.5 35 7.4 102630 100
2009-04-21 08:59:35 51°14.304 2°49.18 3.8 32 7.5 102630 100
2009-04-21 08:59:41 51°14.3 2°49.174 3.6 29 7.5 102630 100
2009-04-21 08:59:46 51°14.296 2°49.169 3.7 29 7.5 102630 100
2009-04-21 08:59:51 51°14.293 2°49.164 3.9 29 7.5 102630 100
2009-04-21 08:59:56 51°14.289 2°49.158 4.3 32 7.5 102630 100
2009-04-21 09:00:01 51°14.286 2°49.153 3.9 34 7.5 102630 100
2009-04-21 09:00:06 51°14.282 2°49.148 3.6 34 7.5 102630 100
2009-04-21 09:00:11 51°14.279 2°49.143 3.9 32 7.5 102630 100
2009-04-21 09:00:16 51°14.275 2°49.137 4.1 36 7.5 102630 100
2009-04-21 09:00:21 51°14.272 2°49.132 3.8 36 7.5 102630 100
2009-04-21 09:00:26 51°14.268 2°49.127 3.6 34 7.5 102630 100
2009-04-21 09:00:30 51°14.266 2°49.123 3.7 36 7.5 102630 100
2009-04-21 09:00:36 51°14.262 2°49.116 3.4 37 7.5 102630 100
2009-04-21 09:00:41 51°14.258 2°49.111 3.4 36 7.5 102630 100
2009-04-21 09:00:46 51°14.255 2°49.106 3.2 36 7.5 102630 100
2009-04-21 09:00:50 51°14.252 2°49.101 3 -999 7.5 102630 100
2009-04-21 09:00:55 51°14.248 2°49.096 3.5 37 7.5 102640 100
2009-04-21 09:01:01 51°14.244 2°49.09 4.3 37 7.5 102640 100
2009-04-21 09:01:06 51°14.241 2°49.085 4 36 7.4 102640 100
2009-04-21 09:01:10 51°14.238 2°49.08 4 34 7.4 102640 100
2009-04-21 09:01:15 51°14.234 2°49.075 4.1 37 7.5 102640 100
2009-04-21 09:01:20 51°14.231 2°49.07 4 37 7.5 102640 100
2009-04-21 09:01:26 51°14.227 2°49.063 3.6 37 7.4 102630 100
2009-04-21 09:01:30 51°14.224 2°49.059 3.1 37 7.4 102630 100
2009-04-21 09:01:35 51°14.22 2°49.053 3.1 37 7.4 102630 100
2009-04-21 09:01:41 51°14.216 2°49.048 3.3 35 7.4 102630 100
2009-04-21 09:01:46 51°14.212 2°49.043 3.4 33 7.4 102630 100
2009-04-21 09:01:50 51°14.21 2°49.038 3.4 28 7.4 102630 100
2009-04-21 09:01:55 51°14.206 2°49.033 4 32 7.4 102630 100
2009-04-21 09:02:01 51°14.202 2°49.026 2.6 34 7.4 102630 100
2009-04-21 09:02:05 51°14.199 2°49.022 4.4 35 7.4 102630 100
2009-04-21 09:02:11 51°14.195 2°49.016 3.5 34 7.4 102630 100
2009-04-21 09:02:15 51°14.193 2°49.011 3.3 31 7.4 102630 100
2009-04-21 09:02:21 51°14.188 2°49.005 3 31 7.4 102630 100
2009-04-21 09:02:26 51°14.185 2°49 3.2 29 7.4 102630 100
2009-04-21 09:02:30 51°14.182 2°48.995 3 31 7.4 102630 100
2009-04-21 09:02:35 51°14.179 2°48.99 3.7 30 7.4 102630 100
2009-04-21 09:02:41 51°14.175 2°48.984 3.7 36 7.4 102630 100
2009-04-21 09:02:46 51°14.171 2°48.978 4 32 7.4 102630 100
2009-04-21 09:02:50 51°14.169 2°48.974 3.8 -999 7.4 102630 100
2009-04-21 09:02:55 51°14.165 2°48.969 4.4 35 7.4 102640 100
2009-04-21 09:03:01 51°14.161 2°48.962 4.1 35 7.4 102640 100
2009-04-21 09:03:06 51°14.157 2°48.957 4.5 35 7.4 102630 100
2009-04-21 09:03:11 51°14.154 2°48.952 4.8 37 7.4 102630 100
2009-04-21 09:03:15 51°14.151 2°48.948 4.4 36 7.4 102630 100
2009-04-21 09:03:21 51°14.147 2°48.941 4.1 37 7.4 102630 100
2009-04-21 09:03:26 51°14.144 2°48.936 4.8 37 7.4 102630 100
2009-04-21 09:03:31 51°14.14 2°48.93 4.6 39 7.4 102630 100
2009-04-21 09:03:35 51°14.137 2°48.926 4.8 37 7.4 102630 100
2009-04-21 09:03:41 51°14.133 2°48.92 4.8 37 7.4 102630 100
2009-04-21 09:03:46 51°14.13 2°48.914 4.5 39 7.4 102630 100
2009-04-21 09:03:51 51°14.127 2°48.909 4.2 40 7.4 102630 100
2009-04-21 09:03:55 51°14.124 2°48.904 3.7 41 7.4 102630 100
2009-04-21 09:04:01 51°14.12 2°48.898 3.9 40 7.4 102630 100
2009-04-21 09:04:06 51°14.117 2°48.892 3.4 40 7.4 102630 100
2009-04-21 09:04:11 51°14.114 2°48.887 3.3 38 7.4 102630 100
2009-04-21 09:04:15 51°14.111 2°48.882 3.2 41 7.3 102630 100
2009-04-21 09:04:21 51°14.107 2°48.875 2.7 37 7.3 102630 100
2009-04-21 09:04:25 51°14.105 2°48.871 2.8 34 7.3 102630 100
2009-04-21 09:04:31 51°14.102 2°48.864 3.7 33 7.3 102630 100
2009-04-21 09:04:36 51°14.099 2°48.858 3.6 30 7.3 102630 100
2009-04-21 09:04:41 51°14.096 2°48.852 4 26 7.3 102630 100
2009-04-21 09:04:46 51°14.093 2°48.847 4.2 22 7.3 102630 100
2009-04-21 09:04:51 51°14.091 2°48.84 4 -999 7.3 102630 100
2009-04-21 09:04:56 51°14.088 2°48.834 4 23 7.3 102630 100
2009-04-21 09:05:01 51°14.086 2°48.828 4.3 28 7.3 102630 100
2009-04-21 09:05:06 51°14.084 2°48.821 3.6 27 7.3 102630 100
2009-04-21 09:05:10 51°14.082 2°48.816 3.8 24 7.3 102630 100
2009-04-21 09:05:16 51°14.08 2°48.808 4.1 23 7.3 102630 100
2009-04-21 09:05:21 51°14.079 2°48.801 3.9 26 7.3 102630 100
2009-04-21 09:05:26 51°14.077 2°48.795 4.6 25 7.3 102630 100
2009-04-21 09:05:30 51°14.076 2°48.789 3.8 22 7.3 102630 100
2009-04-21 09:05:35 51°14.075 2°48.782 4.5 22 7.3 102630 100
2009-04-21 09:05:41 51°14.073 2°48.774 4.7 22 7.3 102630 100
2009-04-21 09:05:46 51°14.072 2°48.767 4.7 23 7.3 102620 100
2009-04-21 09:05:50 51°14.071 2°48.762 4.3 -999 7.3 102620 100
2009-04-21 09:05:55 51°14.07 2°48.755 4.5 21 7.3 102630 100
2009-04-21 09:06:00 51°14.069 2°48.748 4.6 21 7.3 102630 100
2009-04-21 09:06:06 51°14.068 2°48.74 4.7 21 7.3 102630 100
2009-04-21 09:06:10 51°14.067 2°48.734 4.6 18 7.3 102630 100
2009-04-21 09:06:15 51°14.066 2°48.727 4.9 22 7.3 102630 100
2009-04-21 09:06:21 51°14.064 2°48.719 4.5 25 7.3 102630 100
2009-04-21 09:06:26 51°14.064 2°48.712 4.8 24 7.3 102630 100
2009-04-21 09:06:30 51°14.063 2°48.707 4.3 22 7.3 102630 100
2009-04-21 09:06:35 51°14.062 2°48.7 5.2 20 7.2 102630 100
2009-04-21 09:06:41 51°14.061 2°48.692 4.8 22 7.2 102630 100
2009-04-21 09:06:46 51°14.061 2°48.685 4.7 21 7.2 102630 100
2009-04-21 09:06:50 51°14.06 2°48.679 5.1 22 7.2 102630 100
2009-04-21 09:06:55 51°14.06 2°48.672 4.1 21 7.2 102630 100
2009-04-21 09:07:01 51°14.059 2°48.664 4.1 17 7.2 102630 100
2009-04-21 09:07:05 51°14.059 2°48.658 4.2 19 7.3 102630 100
2009-04-21 09:07:10 51°14.059 2°48.651 3.8 17 7.3 102630 100
2009-04-21 09:07:15 51°14.058 2°48.645 4.2 19 7.3 102630 100
2009-04-21 09:07:21 51°14.058 2°48.636 4 19 7.3 102630 100
2009-04-21 09:07:26 51°14.059 2°48.629 4.1 14 7.3 102640 100
2009-04-21 09:07:30 51°14.059 2°48.624 3.9 9 7.3 102640 100
2009-04-21 09:07:35 51°14.059 2°48.617 3.9 8 7.2 102630 100
2009-04-21 09:07:41 51°14.06 2°48.608 4.3 10 7.2 102630 100
2009-04-21 09:07:46 51°14.061 2°48.601 3.7 8 7.2 102630 100
2009-04-21 09:07:50 51°14.061 2°48.596 4.4 -999 7.2 102630 100
2009-04-21 09:07:55 51°14.062 2°48.589 4.3 5 7.2 102630 100
2009-04-21 09:08:00 51°14.064 2°48.582 4.4 9 7.2 102630 100
2009-04-21 09:08:06 51°14.065 2°48.573 5 8 7.2 102630 100
2009-04-21 09:08:10 51°14.066 2°48.568 5.1 7 7.2 102630 100
2009-04-21 09:08:15 51°14.068 2°48.561 5 6 7.2 102630 100
2009-04-21 09:08:21 51°14.07 2°48.554 4.7 6 7.2 102630 100
2009-04-21 09:08:26 51°14.072 2°48.548 4.2 4 7.2 102630 100
2009-04-21 09:08:30 51°14.073 2°48.543 4.4 6 7.2 102630 100
2009-04-21 09:08:35 51°14.076 2°48.537 4.7 2 7.2 102630 100
2009-04-21 09:08:41 51°14.078 2°48.531 4.6 4 7.2 102630 100
2009-04-21 09:08:46 51°14.08 2°48.525 5.6 4 7.2 102630 100
2009-04-21 09:08:50 51°14.081 2°48.522 4.9 5 7.2 102630 100
2009-04-21 09:08:55 51°14.083 2°48.518 5.4 6 7.2 102630 100
2009-04-21 09:09:01 51°14.086 2°48.513 4.6 5 7.2 102630 100
2009-04-21 09:09:06 51°14.088 2°48.509 5.8 7 7.2 102630 100
2009-04-21 09:09:10 51°14.089 2°48.506 5.6 7 7.2 102630 100
2009-04-21 09:09:15 51°14.091 2°48.503 5.5 7 7.2 102630 100
2009-04-21 09:09:21 51°14.093 2°48.5 5.1 7 7.2 102630 100
2009-04-21 09:09:25 51°14.095 2°48.498 5.5 5 7.2 102630 100
2009-04-21 09:09:30 51°14.097 2°48.496 4.8 4 7.2 102630 100
2009-04-21 09:09:36 51°14.099 2°48.493 4.8 4 7.2 102630 100
2009-04-21 09:09:41 51°14.1 2°48.491 5.1 3 7.2 102630 100
2009-04-21 09:09:46 51°14.102 2°48.489 5.2 4 7.2 102620 100
2009-04-21 09:09:50 51°14.104 2°48.488 5.2 3 7.2 102620 100
2009-04-21 09:09:55 51°14.105 2°48.487 5.3 7 7.2 102630 100
2009-04-21 09:10:01 51°14.107 2°48.485 5.4 7 7.2 102630 100
2009-04-21 09:10:06 51°14.109 2°48.484 4.2 7 7.2 102630 100
2009-04-21 09:10:10 51°14.11 2°48.483 4.4 8 7.2 102630 100
2009-04-21 09:10:15 51°14.111 2°48.483 4.7 6 7.2 102620 100
2009-04-21 09:10:21 51°14.113 2°48.482 4.2 5 7.2 102620 100
2009-04-21 09:10:26 51°14.114 2°48.481 4.6 3 7.2 102630 100
2009-04-21 09:10:30 51°14.115 2°48.481 4.7 3 7.2 102630 100
2009-04-21 09:10:35 51°14.116 2°48.481 7.2 8 7.2 102630 100
2009-04-21 09:10:40 51°14.118 2°48.48 7.1 8 7.2 102630 100
2009-04-21 09:10:46 51°14.119 2°48.48 7.9 11 7.2 102630 100
2009-04-21 09:10:50 51°14.12 2°48.48 6.6 -999 7.2 102630 100
2009-04-21 09:10:55 51°14.121 2°48.48 6.2 12 7.2 102630 100
2009-04-21 09:11:01 51°14.122 2°48.48 6.5 10 7.2 102630 100
2009-04-21 09:11:05 51°14.123 2°48.48 6 8 7.3 102620 100
2009-04-21 09:11:10 51°14.124 2°48.48 5.3 7 7.3 102620 100
2009-04-21 09:11:15 51°14.126 2°48.48 5.3 9 7.3 102620 100
2009-04-21 09:11:21 51°14.127 2°48.48 5.7 8 7.3 102620 100
2009-04-21 09:11:25 51°14.127 2°48.481 6.5 14 7.2 102630 100
2009-04-21 09:11:31 51°14.129 2°48.481 6.3 11 7.2 102630 100
2009-04-21 09:11:36 51°14.13 2°48.481 6.1 12 7.2 102630 100
2009-04-21 09:11:41 51°14.131 2°48.482 6.2 13 7.2 102630 100
2009-04-21 09:11:46 51°14.131 2°48.482 5.8 10 7.3 102630 100
2009-04-21 09:11:50 51°14.132 2°48.483 5.4 10 7.3 102630 100
2009-04-21 09:11:55 51°14.133 2°48.483 5.6 10 7.2 102630 100
2009-04-21 09:12:01 51°14.134 2°48.483 4.9 10 7.2 102630 100
2009-04-21 09:12:06 51°14.136 2°48.484 4.6 7 7.2 102630 100
2009-04-21 09:12:10 51°14.137 2°48.484 5 6 7.2 102630 100
2009-04-21 09:12:15 51°14.138 2°48.483 3.8 3 7.2 102630 100
2009-04-21 09:12:21 51°14.14 2°48.483 5.9 6 7.2 102630 100
2009-04-21 09:12:26 51°14.142 2°48.483 4.5 3 7.2 102630 100
2009-04-21 09:12:30 51°14.144 2°48.482 5.9 360 7.2 102630 100
2009-04-21 09:12:34 51°14.146 2°48.481 5.6 359 7.2 102630 100
2009-04-21 09:12:40 51°14.149 2°48.481 5.5 356 7.2 102630 100
2009-04-21 09:12:46 51°14.153 2°48.48 5.6 355 7.2 102630 100
2009-04-21 09:12:51 51°14.157 2°48.48 5.2 -999 7.2 102630 100
2009-04-21 09:12:55 51°14.16 2°48.48 5 350 7.2 102630 100
2009-04-21 09:13:00 51°14.163 2°48.48 5.1 281 7.2 102630 100
2009-04-21 09:13:06 51°14.169 2°48.481 7 342 7.2 102630 100
2009-04-21 09:13:10 51°14.174 2°48.481 6.6 283 7.2 102630 100
2009-04-21 09:13:15 51°14.18 2°48.481 8.1 342 7.2 102630 100
2009-04-21 09:13:21 51°14.188 2°48.48 8.8 285 7.2 102630 100
2009-04-21 09:13:26 51°14.196 2°48.48 8.5 337 7.2 102630 100
2009-04-21 09:13:30 51°14.202 2°48.481 6.6 279 7.2 102630 100
2009-04-21 09:13:35 51°14.211 2°48.481 10 338 7.2 102630 100
2009-04-21 09:13:41 51°14.221 2°48.483 7.4 280 7.2 102630 100
2009-04-21 09:13:46 51°14.231 2°48.485 7.8 338 7.2 102630 100
2009-04-21 09:13:50 51°14.238 2°48.486 8.6 283 7.2 102630 100
2009-04-21 09:13:55 51°14.249 2°48.488 10.3 335 7.2 102630 100
2009-04-21 09:14:01 51°14.262 2°48.492 9.8 278 7.2 102630 100
2009-04-21 09:14:06 51°14.273 2°48.495 8.6 337 7.2 102630 100
2009-04-21 09:14:10 51°14.282 2°48.498 9.4 279 7.2 102630 100
2009-04-21 09:14:16 51°14.297 2°48.503 9.2 336 7.2 102630 100
2009-04-21 09:14:21 51°14.31 2°48.508 11 283 7.2 102630 100
2009-04-21 09:14:26 51°14.322 2°48.513 11.1 334 7.2 102630 100
2009-04-21 09:14:30 51°14.333 2°48.519 12 281 7.2 102630 100
2009-04-21 09:14:34 51°14.343 2°48.524 10.7 329 7.2 102630 100
2009-04-21 09:14:41 51°14.363 2°48.534 9.1 278 7.2 102630 100
2009-04-21 09:14:46 51°14.377 2°48.542 9.9 330 7.2 102630 100
2009-04-21 09:14:50 51°14.389 2°48.548 9.8 -999 7.2 102630 100
2009-04-21 09:14:55 51°14.404 2°48.556 10.8 331 7.2 102620 100
2009-04-21 09:15:01 51°14.423 2°48.567 12.7 282 7.2 102620 100
2009-04-21 09:15:06 51°14.439 2°48.576 12.2 331 7.2 102630 100
2009-04-21 09:15:10 51°14.451 2°48.584 12.5 286 7.2 102630 100
2009-04-21 09:15:15 51°14.467 2°48.593 12.3 333 7.2 102630 100
2009-04-21 09:15:21 51°14.487 2°48.605 11.8 280 7.2 102630 100
2009-04-21 09:15:25 51°14.5 2°48.612 12.5 332 7.2 102620 100
2009-04-21 09:15:31 51°14.519 2°48.624 12.8 282 7.2 102620 100
2009-04-21 09:15:35 51°14.533 2°48.631 10.1 332 7.1 102630 100
2009-04-21 09:15:41 51°14.552 2°48.643 10.9 285 7.1 102630 100
2009-04-21 09:15:46 51°14.569 2°48.652 10.3 333 7.1 102630 100
2009-04-21 09:15:50 51°14.582 2°48.66 12.5 284 7.1 102630 100
2009-04-21 09:15:55 51°14.598 2°48.67 10.1 334 7.1 102630 100
2009-04-21 09:16:01 51°14.618 2°48.682 9.8 280 7.1 102630 100
2009-04-21 09:16:06 51°14.634 2°48.692 9.8 332 7.1 102630 100
2009-04-21 09:16:10 51°14.647 2°48.7 11.5 332 7.1 102630 100
2009-04-21 09:16:15 51°14.664 2°48.71 11.8 332 7.1 102620 100
2009-04-21 09:16:21 51°14.684 2°48.722 9.8 280 7.1 102620 100
2009-04-21 09:16:26 51°14.7 2°48.733 9.8 332 7.1 102620 100
2009-04-21 09:16:31 51°14.716 2°48.744 11.8 280 7.1 102620 100
2009-04-21 09:16:35 51°14.729 2°48.752 11 332 7.1 102630 100
2009-04-21 09:16:41 51°14.749 2°48.764 9.7 332 7.1 102630 100
2009-04-21 09:16:46 51°14.766 2°48.774 10.3 333 7.2 102630 100
2009-04-21 09:16:50 51°14.779 2°48.783 9.9 279 7.2 102630 100
2009-04-21 09:16:55 51°14.795 2°48.793 11.5 330 7.2 102620 100
2009-04-21 09:17:01 51°14.815 2°48.804 10 278 7.2 102620 100
2009-04-21 09:17:06 51°14.832 2°48.813 12.1 336 7.2 102620 100
2009-04-21 09:17:10 51°14.845 2°48.821 10.8 279 7.2 102620 100
2009-04-21 09:17:15 51°14.862 2°48.83 13 335 7.2 102630 100
2009-04-21 09:17:20 51°14.879 2°48.839 13.2 281 7.2 102630 100
2009-04-21 09:17:26 51°14.899 2°48.849 10.2 335 7.2 102620 100
2009-04-21 09:17:31 51°14.916 2°48.857 12.3 286 7.2 102620 100
2009-04-21 09:17:35 51°14.93 2°48.863 12.3 337 7.2 102630 100
2009-04-21 09:17:41 51°14.95 2°48.873 12.5 279 7.2 102630 100
2009-04-21 09:17:46 51°14.967 2°48.88 10.2 337 7.2 102620 100
2009-04-21 09:17:51 51°14.984 2°48.888 10.3 -999 7.2 102620 100
2009-04-21 09:17:56 51°15.001 2°48.896 12.4 335 7.2 102620 100
2009-04-21 09:18:01 51°15.018 2°48.904 10.1 279 7.2 102620 100
2009-04-21 09:18:06 51°15.035 2°48.913 10.1 337 7.2 102630 100
2009-04-21 09:18:11 51°15.052 2°48.921 13.4 278 7.2 102630 100
2009-04-21 09:18:16 51°15.069 2°48.93 12.1 333 7.2 102620 100
2009-04-21 09:18:21 51°15.086 2°48.939 14.2 281 7.2 102620 100
2009-04-21 09:18:26 51°15.102 2°48.947 12.3 334 7.2 102620 100
2009-04-21 09:18:30 51°15.116 2°48.954 10 282 7.2 102620 100
2009-04-21 09:18:36 51°15.136 2°48.964 9.9 334 7.3 102620 100
2009-04-21 09:18:41 51°15.153 2°48.973 10 283 7.3 102620 100
2009-04-21 09:18:46 51°15.17 2°48.981 11.1 333 7.3 102620 100
2009-04-21 09:18:50 51°15.183 2°48.988 9.8 280 7.3 102620 100
2009-04-21 09:18:56 51°15.204 2°48.998 12.5 336 7.2 102620 100
2009-04-21 09:19:01 51°15.221 2°49.007 10.2 281 7.2 102620 100
2009-04-21 09:19:06 51°15.238 2°49.016 11.8 337 7.2 102630 100
2009-04-21 09:19:10 51°15.251 2°49.023 11.9 286 7.2 102630 100
2009-04-21 09:19:15 51°15.268 2°49.032 10.8 336 7.2 102630 100
2009-04-21 09:19:21 51°15.289 2°49.042 11.2 282 7.2 102630 100
2009-04-21 09:19:26 51°15.306 2°49.051 10.6 337 7.2 102630 100
2009-04-21 09:19:30 51°15.319 2°49.058 12.2 287 7.2 102630 100
2009-04-21 09:19:35 51°15.336 2°49.067 11.8 337 7.2 102630 100
2009-04-21 09:19:41 51°15.357 2°49.077 11.8 286 7.2 102630 100
2009-04-21 09:19:46 51°15.374 2°49.086 12.4 336 7.3 102620 100
2009-04-21 09:19:50 51°15.387 2°49.093 13.4 287 7.3 102620 100
2009-04-21 09:19:55 51°15.404 2°49.102 10.7 334 7.3 102620 100
2009-04-21 09:20:01 51°15.425 2°49.113 9.8 283 7.3 102620 100
2009-04-21 09:20:06 51°15.442 2°49.121 12.1 337 7.3 102620 100
2009-04-21 09:20:11 51°15.459 2°49.131 10.5 282 7.3 102620 100
2009-04-21 09:20:16 51°15.476 2°49.14 10.7 337 7.3 102620 100